[[{"header":{"parameterUnit":"m.s-1","parameterCategory":1,"la1":30.2991,"la2":30.254,"lo1":-89.0895,"lo2":-89.0444,"dy":0.0017,"dx":0.0017,"nx":28,"ny":28,"refTime":"2024-12-05T03:00:00:Z","depth":0,"parameterNumber":2,"parameterNumberName":"U-component_of_WINDS"},"data":[0,0,0,0,0,0,0,0,0,0,0,0,0,0,0,0,0,0,0,0,0,0,0,0,0,0,0,0,0,0,0,0,0,0,0,0,0,0,0,0,0,0,0,0,0,0,0,0,0,0,0,0,0,0,0,0,0,0,-3.5007,-3.5008,0,-3.5052,-3.5053,-3.5053,-3.4931,-3.4927,-3.4923,-3.492,-3.4966,-3.4971,-3.4975,0,0,0,0,0,0,0,0,0,0,0,0,0,-3.4815,-3.4819,-3.5007,-3.5008,-3.5008,-3.5052,-3.5053,-3.5053,-3.4931,-3.4927,-3.4922,-3.4918,-3.4964,-3.497,-3.4976,0,0,0,0,0,0,0,0,0,0,0,0,0,-3.4883,-3.4821,-3.5007,-3.4953,-3.4948,-3.5052,-3.5053,-3.5053,-3.4932,-3.4927,-3.4921,-3.4916,-3.4962,-3.4969,-3.4976,-3.5135,0,0,-3.4998,-3.5001,0,0,0,0,0,0,0,0,-3.488,-3.489,-3.496,-3.4957,-3.4952,-3.498,-3.5002,-3.5081,-3.4934,-3.4939,-3.4919,-3.4913,-3.4975,-3.4981,-3.5002,-3.5137,-3.5139,-3.4999,-3.5003,-3.5006,-3.5008,0,0,0,0,0,0,0,-3.4875,-3.4888,-3.5025,-3.4961,-3.4956,-3.4926,-3.4929,-3.5016,-3.4988,-3.4938,-3.4929,-3.4936,-3.4972,-3.4995,-3.5002,-3.514,-3.4999,-3.5005,-3.501,-3.5012,-3.5405,-3.541,0,0,0,0,0,0,-3.4877,-3.4885,-3.5024,-3.5026,-3.4901,-3.4934,-3.4938,-3.4977,-3.4987,-3.4983,-3.4941,-3.493,-3.4986,-3.4994,-3.5003,-3.5188,-3.5006,-3.5013,-3.5017,-3.5399,-3.5406,-3.5413,0,0,0,0,0,0,-3.4874,-3.4891,-3.5022,-3.4953,-3.4967,-3.4943,-3.4988,-3.4981,-3.5004,-3.4989,-3.4984,-3.497,-3.4982,-3.4993,-3.5102,-3.5188,-3.5016,-3.5023,-3.5391,-3.5401,-3.5409,-3.5561,0,0,0,0,0,0,-3.4869,-3.489,-3.4951,-3.4955,-3.4972,-3.5121,-3.4993,-3.4986,-3.5017,-3.5003,-3.5015,-3.5012,-3.4978,-3.5092,-3.511,-3.5195,-3.5028,-3.5384,-3.5396,-3.5406,-3.5548,-3.5574,-3.5596,0,0,0,0,0,-3.4862,-3.4992,-3.4955,-3.4972,-3.5047,-3.5127,-3.5136,-3.5094,-3.5024,-3.5084,-3.5074,-3.5011,-3.5176,-3.5105,-3.5123,-3.5212,-3.5378,-3.5392,-3.5405,-3.5537,-3.5569,-3.5596,0,0,0,0,0,0,-3.4999,-3.4992,-3.495,-3.5085,-3.5107,-3.5106,-3.5181,-3.5129,-3.5172,-3.5158,-3.5104,-3.5108,-3.5227,-3.523,-3.5151,-3.5365,-3.5265,-3.5283,-3.5359,-3.5389,-3.5412,-3.541,-3.5034,0,0,0,0,0,-3.5045,-3.511,-3.51,-3.5221,-3.5234,-3.5206,-3.5239,-3.5205,-3.5225,-3.5234,-3.5232,-3.5255,-3.5311,-3.535,-3.5401,-3.5547,-3.5548,-3.5617,-3.5641,-3.5661,-3.5678,-3.5754,-3.5785,-3.5458,-3.5458,-3.5457,0,0,-3.5141,-3.5145,-3.519,-3.5248,-3.5261,-3.533,-3.5214,-3.5292,-3.5343,-3.5246,-3.5349,-3.5349,-3.537,-3.5498,-3.5555,-3.5504,-3.5768,-3.5679,-3.5695,-3.5701,-3.5771,-3.5802,-3.583,-3.5467,-3.5465,-3.5464,0,0,-3.535,-3.536,-3.5461,-3.5476,-3.5496,-3.5476,-3.5501,-3.5506,-3.5502,-3.5604,-3.5533,-3.5591,-3.569,-3.5708,-3.573,-3.5944,-3.5887,-3.5962,-3.6089,-3.6164,-3.6189,-3.6212,-3.6288,-3.6316,-3.5978,-3.5979,-3.5979,0,-3.5467,-3.5567,-3.5519,-3.5602,-3.5629,-3.5544,-3.5645,-3.5662,-3.5699,-3.572,-3.5662,-3.5783,-3.5792,-3.5922,-3.5974,-3.5995,-3.6021,-3.5961,-3.6189,-3.6212,-3.6232,-3.6304,-3.6333,-3.5988,-3.5987,-3.5986,-3.5985,0,-3.5709,-3.578,-3.5859,-3.5896,-3.5932,-3.6024,-3.5989,-3.6031,-3.5993,-3.5979,-3.6083,-3.609,-3.6141,-3.6169,-3.6133,-3.6294,-3.6262,-3.6198,-3.6097,-3.6273,-3.634,-3.6367,-3.6,-3.5997,-3.5995,-3.5992,0,0,-3.6009,-3.6016,-3.6046,-3.6061,-3.6076,-3.613,-3.6217,-3.6266,-3.6303,-3.633,-3.6402,-3.6486,-3.6426,-3.6451,-3.6416,-3.6482,-3.665,-3.641,-3.6409,-3.6454,-3.6828,-3.6877,-3.6909,-3.6612,-3.6617,-3.6621,-3.6826,0,-3.6215,-3.6365,-3.6323,-3.6472,-3.6536,-3.6455,-3.653,-3.6548,-3.6536,-3.6588,-3.6575,-3.6636,-3.6552,-3.6567,-3.6628,-3.6617,-3.6725,-3.6602,-3.6678,-3.6681,-3.6676,-3.6944,-3.6996,-3.7189,-3.6852,-3.6856,-3.6859,0,-3.6477,-3.6514,-3.667,-3.6673,-3.6698,-3.6767,-3.6808,-3.6859,-3.6876,-3.6863,-3.689,-3.6841,-3.6925,-3.6823,-3.6938,-3.6855,-3.6884,-3.6883,-3.6889,-3.6896,-3.6782,-3.6958,-3.725,-3.7279,-3.69,-3.6897,-3.6894,0,-3.668,-3.6768,-3.6872,-3.6888,-3.6894,-3.6944,-3.6949,-3.6961,-3.6993,-3.7028,-3.7047,-3.7092,-3.7117,-3.7152,-3.7116,-3.7045,-3.7237,-3.7131,-3.7228,-3.723,-3.7274,-3.7272,-3.7575,-3.7291,-3.7291,-3.729,-3.729,0,-3.6915,-3.7014,-3.6964,-3.7028,-3.7135,-3.7085,-3.7193,-3.7188,-3.7199,-3.7261,-3.7192,-3.7251,-3.72,-3.7254,-3.7226,-3.7326,-3.7337,-3.7329,-3.732,-3.7335,-3.7337,-3.7354,-3.734,-3.7298,-3.7296,-3.7295,-3.7293,0,-3.7161,-3.7131,-3.724,-3.7236,-3.7237,-3.7317,-3.7313,-3.7372,-3.7354,-3.7433,-3.7449,-3.7421,-3.7481,-3.7448,-3.751,-3.7491,-3.7621,-3.7594,-3.7615,-3.7608,-3.7707,-3.7698,-3.8033,-3.8074,-3.7764,-3.7767,-3.7769,0,-3.7314,-3.7388,-3.7392,-3.7428,-3.7437,-3.7496,-3.7527,-3.748,-3.7516,-3.754,-3.7596,-3.765,-3.7691,-3.779,-3.7776,-3.7822,-3.7796,-3.791,-3.7803,-3.7815,-3.7798,-3.7794,-3.7801,-3.7932,-3.7936,-3.7939,-3.7941,0,-3.7589,-3.757,-3.7617,-3.766,-3.7699,-3.7731,-3.7756,-3.7789,-3.7742,-3.7785,-3.7845,-3.7877,-3.7939,-3.7994,-3.8033,-3.8037,-3.7982,-3.7975,-3.7999,-3.8016,-3.8026,-3.8022,-3.7675,-3.7968,-3.7965,-3.7963,-3.7962,-3.796,-3.7793,-3.7854,-3.7866,-3.7921,-3.7935,-3.796,-3.8014,-3.8003,-3.8052,-3.81,-3.8068,-3.8139,-3.8152,-3.82,-3.8211,-3.8265,-3.8219,-3.8256,-3.8265,-3.8275,-3.8288,-3.8016,-3.8272,-3.8271,-3.8271,-3.827,-3.8269,0,-3.8063,-3.8067,-3.8118,-3.8155,-3.8198,-3.8141,-3.8165,-3.8205,-3.8269,-3.8286,-3.8327,-3.8395,-3.8447,-3.8436,-3.8482,-3.8528,-3.8504,-3.8542,-3.8538,-3.854,-3.8327,-3.83,-3.8561,-3.8561,-3.8561,-3.8561,-3.856,-3.856,-3.821,-3.831,-3.8292,-3.8398,-3.84,-3.8469,-3.8488,-3.851,-3.8523,-3.8603,-3.8645,-3.8637,-3.8643,-3.8689,-3.8733,-3.8728,-3.8749,-3.8797,-3.8783,-3.8584,-3.8555,-3.8528,-3.8503,-3.8802,-3.8802,-3.8992,-3.8993,-3.8995]},{"header":{"parameterUnit":"m.s-1","parameterCategory":1,"la1":30.2991,"la2":30.254,"lo1":-89.0895,"lo2":-89.0444,"dy":0.0017,"dx":0.0017,"nx":28,"ny":28,"refTime":"2024-12-05T03:00:00:Z","depth":0,"parameterNumber":3,"parameterNumberName":"V-component_of_WINDS"},"data":[0,0,0,0,0,0,0,0,0,0,0,0,0,0,0,0,0,0,0,0,0,0,0,0,0,0,0,0,0,0,0,0,0,0,0,0,0,0,0,0,0,0,0,0,0,0,0,0,0,0,0,0,0,0,0,0,0,0,-4.8095,-4.8096,0,-4.8169,-4.817,-4.817,-4.81,-4.8097,-4.8094,-4.8092,-4.8164,-4.8168,-4.8172,0,0,0,0,0,0,0,0,0,0,0,0,0,-4.7888,-4.7892,-4.8095,-4.8096,-4.8097,-4.8169,-4.817,-4.8171,-4.8101,-4.8097,-4.8094,-4.8091,-4.8162,-4.8167,-4.8173,0,0,0,0,0,0,0,0,0,0,0,0,0,-4.7971,-4.7893,-4.8095,-4.8071,-4.8069,-4.8168,-4.817,-4.8171,-4.8101,-4.8097,-4.8093,-4.8089,-4.816,-4.8167,-4.8174,-4.8299,0,0,-4.8194,-4.8197,0,0,0,0,0,0,0,0,-4.7967,-4.7979,-4.8073,-4.8072,-4.8071,-4.8121,-4.8123,-4.8214,-4.8102,-4.8089,-4.8092,-4.8087,-4.8153,-4.816,-4.8183,-4.8303,-4.8306,-4.8195,-4.8199,-4.8202,-4.8204,0,0,0,0,0,0,0,-4.7961,-4.7975,-4.8124,-4.8075,-4.8073,-4.8054,-4.8061,-4.814,-4.8143,-4.809,-4.8085,-4.8095,-4.8151,-4.8176,-4.8184,-4.8307,-4.8195,-4.8201,-4.8205,-4.8208,-4.8531,-4.8535,0,0,0,0,0,0,-4.7958,-4.7971,-4.8122,-4.8126,-4.8008,-4.8061,-4.8069,-4.8109,-4.8142,-4.8143,-4.8098,-4.8091,-4.8167,-4.8176,-4.8186,-4.8334,-4.8202,-4.8208,-4.8212,-4.8526,-4.8532,-4.8537,0,0,0,0,0,0,-4.7954,-4.7973,-4.8119,-4.8047,-4.8064,-4.8069,-4.8115,-4.8113,-4.8138,-4.8149,-4.8148,-4.8124,-4.8164,-4.8176,-4.8271,-4.8335,-4.8211,-4.8217,-4.8521,-4.8528,-4.8534,-4.8631,0,0,0,0,0,0,-4.7949,-4.7971,-4.8021,-4.8049,-4.8069,-4.8205,-4.8119,-4.8117,-4.815,-4.8142,-4.8173,-4.8174,-4.8161,-4.8262,-4.8278,-4.8342,-4.8223,-4.8515,-4.8524,-4.8532,-4.8623,-4.8641,-4.8656,0,0,0,0,0,-4.7941,-4.8045,-4.8024,-4.8042,-4.8131,-4.8209,-4.822,-4.8205,-4.8156,-4.8204,-4.8211,-4.8173,-4.8326,-4.8272,-4.829,-4.8357,-4.8511,-4.8521,-4.8531,-4.8615,-4.8637,-4.8656,0,0,0,0,0,0,-4.8024,-4.8048,-4.8025,-4.8141,-4.8174,-4.8197,-4.8258,-4.8229,-4.8275,-4.8265,-4.8243,-4.8251,-4.8351,-4.8363,-4.8303,-4.8479,-4.841,-4.8424,-4.8467,-4.8489,-4.8505,-4.85,-4.8228,0,0,0,0,0,-4.8055,-4.8118,-4.8136,-4.8237,-4.8254,-4.8253,-4.8287,-4.8272,-4.8304,-4.8317,-4.8331,-4.8362,-4.8417,-4.8453,-4.8505,-4.8624,-4.8628,-4.8679,-4.8695,-4.8709,-4.8722,-4.8783,-4.8805,-4.857,-4.857,-4.857,0,0,-4.8122,-4.8143,-4.8184,-4.8254,-4.8277,-4.834,-4.8265,-4.8336,-4.8383,-4.8328,-4.8418,-4.8429,-4.8462,-4.8569,-4.8617,-4.8582,-4.8787,-4.8722,-4.8733,-4.8738,-4.8796,-4.8818,-4.8838,-4.8577,-4.8576,-4.8574,0,0,-4.8274,-4.8298,-4.8383,-4.8408,-4.8444,-4.8443,-4.8463,-4.849,-4.8496,-4.8586,-4.8545,-4.8599,-4.8695,-4.8719,-4.8745,-4.8904,-4.887,-4.8921,-4.9009,-4.907,-4.9088,-4.9104,-4.916,-4.918,-4.8934,-4.8934,-4.8934,0,-4.8351,-4.8448,-4.843,-4.8504,-4.8535,-4.8488,-4.8573,-4.8598,-4.8649,-4.867,-4.8631,-4.8748,-4.8768,-4.8879,-4.8918,-4.894,-4.8961,-4.8918,-4.9087,-4.9103,-4.9118,-4.917,-4.9192,-4.894,-4.8939,-4.8939,-4.8938,0,-4.8539,-4.8606,-4.8671,-4.8722,-4.8759,-4.8839,-4.8831,-4.8872,-4.8853,-4.8855,-4.8946,-4.8967,-4.9021,-4.9046,-4.9029,-4.9154,-4.9132,-4.9091,-4.9021,-4.9147,-4.9195,-4.9216,-4.8948,-4.8946,-4.8944,-4.8943,0,0,-4.8747,-4.8787,-4.881,-4.8832,-4.8867,-4.8918,-4.8993,-4.9047,-4.9081,-4.9116,-4.9178,-4.9259,-4.922,-4.9249,-4.9233,-4.9287,-4.9409,-4.9238,-4.9238,-4.9268,-4.9546,-4.9576,-4.96,-4.9387,-4.9391,-4.9394,-4.9543,0,-4.89,-4.9033,-4.9019,-4.9145,-4.9205,-4.916,-4.9226,-4.9253,-4.9257,-4.9306,-4.9309,-4.9366,-4.9312,-4.9329,-4.9379,-4.9384,-4.9465,-4.9373,-4.9442,-4.9445,-4.9435,-4.9626,-4.9659,-4.9799,-4.9562,-4.9565,-4.9568,0,-4.9097,-4.914,-4.9272,-4.9296,-4.9321,-4.9381,-4.9427,-4.9476,-4.9505,-4.9503,-4.9535,-4.9509,-4.9583,-4.9512,-4.9611,-4.9549,-4.9576,-4.9582,-4.9587,-4.9593,-4.9513,-4.9635,-4.9843,-4.9864,-4.9598,-4.9595,-4.9593,0,-4.9233,-4.9324,-4.9415,-4.9434,-4.9466,-4.9508,-4.9523,-4.9548,-4.958,-4.962,-4.964,-4.9688,-4.9714,-4.975,-4.9738,-4.9688,-4.9839,-4.9768,-4.9838,-4.9839,-4.9872,-4.987,-5.0086,-4.9891,-4.9891,-4.9891,-4.989,0,-4.9405,-4.9487,-4.9476,-4.9532,-4.9621,-4.9603,-4.9692,-4.97,-4.9723,-4.9778,-4.9742,-4.9793,-4.9774,-4.9824,-4.9815,-4.9897,-4.991,-4.9909,-4.9905,-4.9912,-4.9912,-4.9929,-4.9918,-4.9896,-4.9895,-4.9894,-4.9893,0,-4.9573,-4.9569,-4.9664,-4.9685,-4.9692,-4.9758,-4.9775,-4.9826,-4.9825,-4.9895,-4.991,-4.9909,-4.9966,-4.9957,-5.002,-5.0013,-5.0116,-5.0101,-5.0107,-5.0103,-5.0174,-5.0167,-5.0408,-5.0438,-5.0224,-5.0226,-5.0228,0,-4.9682,-4.9745,-4.9772,-4.9807,-4.9825,-4.9881,-4.9913,-4.9896,-4.9931,-4.9968,-5.0014,-5.0068,-5.011,-5.0202,-5.0206,-5.0253,-5.0238,-5.032,-5.0245,-5.0249,-5.0238,-5.0234,-5.0239,-5.0334,-5.0337,-5.0339,-5.034,0,-4.9877,-4.9871,-4.992,-4.9969,-5.0008,-5.0045,-5.0078,-5.0108,-5.0094,-5.0134,-5.0192,-5.0225,-5.0289,-5.0342,-5.0386,-5.0398,-5.0367,-5.0364,-5.0382,-5.0389,-5.0389,-5.0389,-5.0146,-5.0358,-5.0356,-5.0355,-5.0354,-5.0353,-5.0018,-5.007,-5.0097,-5.0152,-5.0175,-5.0207,-5.0255,-5.0261,-5.0309,-5.036,-5.0347,-5.0412,-5.0437,-5.0493,-5.051,-5.056,-5.0529,-5.0557,-5.0563,-5.057,-5.0578,-5.0382,-5.0568,-5.0567,-5.0566,-5.0566,-5.0566,0,-5.0209,-5.0224,-5.0275,-5.0322,-5.0365,-5.0332,-5.0366,-5.0404,-5.0462,-5.0489,-5.053,-5.0596,-5.0646,-5.0654,-5.0701,-5.0739,-5.0726,-5.0752,-5.0749,-5.0752,-5.0603,-5.0582,-5.0762,-5.0762,-5.0762,-5.0762,-5.0762,-5.0762,-5.0314,-5.04,-5.0397,-5.0493,-5.0507,-5.0572,-5.0594,-5.0621,-5.0642,-5.0717,-5.0759,-5.0764,-5.0782,-5.083,-5.0875,-5.0875,-5.0894,-5.0926,-5.0921,-5.0782,-5.0762,-5.0744,-5.0723,-5.093,-5.093,-5.1065,-5.1066,-5.1067]}]]